Location: Caltech
(34.1382°N, 118.1253°W)
Time: 05:50:51
(UTC-08:00)

Lacrosse 5 - Visible Passes

Search period start: 23 February 2017 00:00
Search period end: 05 March 2017 00:00
Orbit: 718 x 722 km, 57.0° (Epoch: 29 January)

Date Brightness Start Highest point End Pass type
(mag) Time Alt. Az. Time Alt. Az. Time Alt. Az.
23 Feb 4.9 03:00:42 11° ENE 03:00:42 11° ENE 03:00:54 10° ENE visible
23 Feb 2.3 04:39:56 45° NW 04:39:56 45° NW 04:44:32 10° NNE visible
24 Feb 3.5 03:49:14 28° NE 03:49:14 28° NE 03:51:39 10° NE visible
24 Feb 3.6 05:28:28 14° WNW 05:30:10 16° NNW 05:33:16 10° N visible
25 Feb 4.9 02:58:25 10° NE 02:58:25 10° NE 02:58:26 10° NE visible
25 Feb 3.2 04:37:39 25° NNW 04:37:39 25° NNW 04:40:59 10° NNE visible
26 Feb 4.0 03:46:45 20° NNE 03:46:45 20° NNE 03:48:21 10° NNE visible
26 Feb 4.0 05:27:16 10° NNW 05:27:36 10° NNW 05:27:56 10° NNW visible
27 Feb 3.9 04:34:59 15° NNW 04:34:59 15° NNW 04:37:06 10° N visible
28 Feb 4.3 03:43:56 14° N 03:43:56 14° N 03:44:48 10° NNE visible
02 Mar 4.6 03:40:56 10° N 03:40:56 10° N 03:40:56 10° N visible
